START_TIME,STEP,MOV.,P11,t_acc.,P23,t_acc.,P27,t_acc.,A4,t_acc.
1979-07-01 15:00:24.050 ,1,0,0.,4.8,0.,4.8,0.,4.8,0.,4.8
1979-07-01 15:00:28.850 ,1,0,0.,4.8,0.,4.8,0.,4.8,0.,4.8
1979-07-01 15:00:33.650 ,1,0,0.,4.8,0.,4.8,0.,4.8,0.,4.8
1979-07-01 15:00:38.450 ,1,0,0.,4.8,0.,4.8,0.,4.8,0.,4.8
1979-07-01 15:00:43.250 ,1,0,0.,4.8,1.,4.8,0.,4.8,0.,4.8
1979-07-01 15:00:48.050 ,2,0,0.,4.8,0.,4.8,0.,4.8,0.,4.8
1979-07-01 15:00:52.850 ,2,0,0.,4.8,0.,4.8,0.,4.8,0.,4.8
1979-07-01 15:00:57.650 ,2,0,0.,4.8,0.,4.8,0.,4.8,0.,4.8
1979-07-01 15:01:02.450 ,2,0,0.,4.8,0.,4.8,0.,4.8,0.,4.8
1979-07-01 15:01:07.250 ,2,0,0.,4.8,0.,4.8,0.,4.8,0.,4.8
1979-07-01 15:01:12.050 ,2,0,0.,4.8,0.,4.8,0.,4.8,0.,4.8
1979-07-01 15:01:16.850 ,2,0,0.,4.8,0.,4.8,0.,4.8,0.,4.8
1979-07-01 15:01:21.650 ,2,0,0.,4.8,0.,4.8,0.,4.8,0.,4.8
1979-07-01 15:01:26.450 ,2,0,0.,4.8,0.,4.8,0.,4.8,0.,4.8
1979-07-01 15:01:31.250 ,2,0,0.,4.8,0.,4.8,0.,4.8,0.,4.8
1979-07-01 15:01:36.050 ,3,0,1.,4.8,0.,4.8,0.,4.8,0.,4.8
1979-07-01 15:01:40.850 ,3,0,0.,4.8,0.,4.8,0.,4.8,0.,4.8
1979-07-01 15:01:45.650 ,3,0,0.,4.8,0.,4.8,0.,4.8,0.,4.8
1979-07-01 15:01:50.450 ,3,0,0.,4.8,0.,4.8,0.,4.8,0.,4.8
1979-07-01 15:01:55.250 ,3,0,0.,4.8,0.,4.8,0.,4.8,0.,4.8
1979-07-01 15:02:00.050 ,3,0,0.,4.8,0.,4.8,0.,4.8,0.,4.8
1979-07-01 15:02:04.850 ,3,0,1.,4.8,0.,4.8,0.,4.8,0.,4.8
1979-07-01 15:02:09.650 ,3,0,0.,4.8,0.,4.8,0.,4.8,0.,4.8
1979-07-01 15:02:14.450 ,3,0,0.,4.8,0.,4.8,0.,4.8,0.,4.8
1979-07-01 15:02:19.250 ,3,0,0.,4.8,0.,4.8,0.,4.8,0.,4.8
1979-07-01 15:02:24.050 ,4,0,0.,4.8,0.,4.8,1.,4.8,0.,4.8
1979-07-01 15:02:28.850 ,4,0,0.,4.8,0.,4.8,0.,4.8,0.,4.8
1979-07-01 15:02:33.650 ,4,0,1.,4.8,0.,4.8,0.,4.8,0.,4.8
1979-07-01 15:02:38.450 ,4,0,1.,4.8,0.,4.8,0.,4.8,0.,4.8
1979-07-01 15:02:43.250 ,4,0,0.,4.8,0.,4.8,0.,4.8,0.,4.8
1979-07-01 15:02:48.050 ,4,0,0.,4.8,0.,4.8,0.,4.8,0.,4.8
1979-07-01 15:02:52.850 ,4,0,0.,4.8,0.,4.8,0.,4.8,0.,4.8
1979-07-01 15:02:57.650 ,4,0,1.,4.8,0.,4.8,0.,4.8,0.,4.8
1979-07-01 15:03:02.450 ,4,0,0.,4.8,0.,4.8,0.,4.8,0.,4.8
1979-07-01 15:03:07.250 ,4,0,0.,4.8,0.,4.8,0.,4.8,0.,4.8
1979-07-01 15:03:12.050 ,5,0,2.,4.8,0.,4.8,0.,4.8,0.,4.8
1979-07-01 15:03:16.850 ,5,0,1.,4.8,0.,4.8,0.,4.8,0.,4.8
1979-07-01 15:03:21.650 ,5,0,0.,4.8,0.,4.8,0.,4.8,0.,4.8
1979-07-01 15:03:26.450 ,5,0,0.,4.8,0.,4.8,0.,4.8,0.,4.8
1979-07-01 15:03:31.250 ,5,0,0.,4.8,0.,4.8,0.,4.8,0.,4.8
1979-07-01 15:03:36.050 ,5,0,1.,4.8,0.,4.8,0.,4.8,0.,4.8
1979-07-01 15:03:40.850 ,5,0,0.,4.8,0.,4.8,0.,4.8,0.,4.8
1979-07-01 15:03:45.650 ,5,0,1.,4.8,0.,4.8,0.,4.8,0.,4.8
1979-07-01 15:03:50.450 ,5,0,1.,4.8,0.,4.8,0.,4.8,0.,4.8
1979-07-01 15:03:55.250 ,5,0,1.,4.8,0.,4.8,0.,4.8,0.,4.8
1979-07-01 15:04:00.050 ,6,0,0.,4.8,0.,4.8,0.,4.8,0.,4.8
1979-07-01 15:04:04.850 ,6,0,0.,4.8,0.,4.8,0.,4.8,0.,4.8
1979-07-01 15:04:09.650 ,6,0,0.,4.8,0.,4.8,0.,4.8,0.,4.8
1979-07-01 15:04:14.450 ,6,0,0.,4.8,0.,4.8,0.,4.8,0.,4.8
1979-07-01 15:04:19.250 ,6,0,0.,4.8,0.,4.8,0.,4.8,0.,4.8
1979-07-01 15:04:24.050 ,6,0,0.,4.8,0.,4.8,0.,4.8,0.,4.8
1979-07-01 15:04:28.850 ,6,0,0.,4.8,0.,4.8,0.,4.8,0.,4.8
1979-07-01 15:04:33.650 ,6,0,1.,4.8,0.,4.8,0.,4.8,0.,4.8
1979-07-01 15:04:38.450 ,6,0,0.,4.8,0.,4.8,0.,4.8,0.,4.8
1979-07-01 15:04:43.250 ,6,0,1.,4.8,0.,4.8,1.,4.8,0.,4.8
1979-07-01 15:04:48.050 ,7,0,0.,4.8,0.,4.8,0.,4.8,0.,4.8
1979-07-01 15:04:52.850 ,7,0,0.,4.8,0.,4.8,0.,4.8,0.,4.8
1979-07-01 15:04:57.650 ,7,0,0.,4.8,0.,4.8,0.,4.8,0.,4.8
1979-07-01 15:05:02.450 ,7,0,1.,4.8,0.,4.8,0.,4.8,0.,4.8
1979-07-01 15:05:07.250 ,7,0,0.,4.8,0.,4.8,0.,4.8,0.,4.8
1979-07-01 15:05:12.050 ,7,0,0.,4.8,0.,4.8,0.,4.8,0.,4.8
1979-07-01 15:05:16.850 ,7,0,0.,4.8,0.,4.8,0.,4.8,0.,4.8
1979-07-01 15:05:21.650 ,7,0,0.,4.8,0.,4.8,0.,4.8,0.,4.8
1979-07-01 15:05:26.450 ,7,0,0.,4.8,0.,4.8,0.,4.8,0.,4.8
1979-07-01 15:05:31.250 ,7,0,0.,4.8,0.,4.8,0.,4.8,0.,4.8
1979-07-01 15:05:36.050 ,7,0,0.,4.8,0.,4.8,0.,4.8,0.,4.8
1979-07-01 15:05:40.850 ,7,0,0.,4.8,0.,4.8,0.,4.8,0.,4.8
1979-07-01 15:05:45.650 ,7,0,2.,4.8,0.,4.8,0.,4.8,0.,4.8
1979-07-01 15:05:50.450 ,7,0,0.,4.8,0.,4.8,0.,4.8,0.,4.8
1979-07-01 15:05:55.250 ,7,0,0.,4.8,0.,4.8,0.,4.8,0.,4.8
1979-07-01 15:06:00.050 ,7,0,0.,4.8,0.,4.8,0.,4.8,0.,4.8
1979-07-01 15:06:04.850 ,7,0,0.,4.8,0.,4.8,0.,4.8,0.,4.8
1979-07-01 15:06:09.650 ,7,0,0.,4.8,0.,4.8,0.,4.8,0.,4.8
1979-07-01 15:06:14.450 ,7,0,0.,4.8,0.,4.8,0.,4.8,0.,4.8
1979-07-01 15:06:19.250 ,7,0,0.,4.8,0.,4.8,0.,4.8,0.,4.8
1979-07-01 15:06:24.050 ,6,0,0.,4.8,1.,4.8,0.,4.8,0.,4.8
1979-07-01 15:06:28.850 ,6,0,0.,4.8,0.,4.8,0.,4.8,0.,4.8
1979-07-01 15:06:33.650 ,6,0,0.,4.8,0.,4.8,0.,4.8,0.,4.8
1979-07-01 15:06:38.450 ,6,0,0.,4.8,0.,4.8,0.,4.8,0.,4.8
1979-07-01 15:06:43.250 ,6,0,0.,4.8,0.,4.8,0.,4.8,0.,4.8
1979-07-01 15:06:48.050 ,6,0,1.,4.8,0.,4.8,0.,4.8,0.,4.8
1979-07-01 15:06:52.850 ,6,0,0.,4.8,0.,4.8,0.,4.8,0.,4.8
1979-07-01 15:06:57.650 ,6,0,0.,4.8,1.,4.8,0.,4.8,0.,4.8
1979-07-01 15:07:02.450 ,6,0,1.,4.8,0.,4.8,0.,4.8,0.,4.8
1979-07-01 15:07:07.250 ,6,0,0.,4.8,0.,4.8,1.,4.8,0.,4.8
1979-07-01 15:07:12.050 ,5,0,0.,4.8,0.,4.8,0.,4.8,0.,4.8
1979-07-01 15:07:16.850 ,5,0,0.,4.8,0.,4.8,0.,4.8,0.,4.8
1979-07-01 15:07:21.650 ,5,0,1.,4.8,0.,4.8,0.,4.8,0.,4.8
1979-07-01 15:07:26.450 ,5,0,0.,4.8,0.,4.8,0.,4.8,0.,4.8
1979-07-01 15:07:31.250 ,5,0,0.,4.8,0.,4.8,0.,4.8,0.,4.8
1979-07-01 15:07:36.050 ,5,0,0.,4.8,0.,4.8,0.,4.8,0.,4.8
1979-07-01 15:07:40.850 ,5,0,0.,4.8,0.,4.8,0.,4.8,0.,4.8
1979-07-01 15:07:45.650 ,5,0,0.,4.8,0.,4.8,0.,4.8,0.,4.8
1979-07-01 15:07:50.450 ,5,0,0.,4.8,0.,4.8,0.,4.8,0.,4.8
1979-07-01 15:07:55.250 ,5,0,1.,4.8,0.,4.8,0.,4.8,0.,4.8
1979-07-01 15:08:00.050 ,4,0,0.,4.8,0.,4.8,0.,4.8,0.,4.8
1979-07-01 15:08:04.850 ,4,0,0.,4.8,0.,4.8,0.,4.8,0.,4.8
1979-07-01 15:08:09.650 ,4,0,1.,4.8,0.,4.8,0.,4.8,0.,4.8
1979-07-01 15:08:14.450 ,4,0,0.,4.8,0.,4.8,1.,4.8,0.,4.8
1979-07-01 15:08:19.250 ,4,0,1.,4.8,0.,4.8,0.,4.8,0.,4.8
1979-07-01 15:08:24.050 ,4,0,2.,4.8,1.,4.8,0.,4.8,0.,4.8
1979-07-01 15:08:28.850 ,4,0,1.,4.8,0.,4.8,0.,4.8,0.,4.8
1979-07-01 15:08:33.650 ,4,0,0.,4.8,0.,4.8,0.,4.8,0.,4.8
1979-07-01 15:08:38.450 ,4,0,1.,4.8,1.,4.8,1.,4.8,0.,4.8
1979-07-01 15:08:43.250 ,4,0,1.,4.8,0.,4.8,0.,4.8,0.,4.8
1979-07-01 15:08:48.050 ,3,0,2.,4.8,0.,4.8,0.,4.8,0.,4.8
1979-07-01 15:08:52.850 ,3,0,0.,4.8,0.,4.8,0.,4.8,0.,4.8
1979-07-01 15:08:57.650 ,3,0,0.,4.8,0.,4.8,0.,4.8,0.,4.8
1979-07-01 15:09:02.450 ,3,0,0.,4.8,0.,4.8,0.,4.8,0.,4.8
1979-07-01 15:09:07.250 ,3,0,0.,4.8,0.,4.8,0.,4.8,0.,4.8
1979-07-01 15:09:12.050 ,3,0,1.,4.8,0.,4.8,0.,4.8,0.,4.8
1979-07-01 15:09:16.850 ,3,0,1.,4.8,1.,4.8,0.,4.8,0.,4.8
1979-07-01 15:09:21.650 ,3,0,1.,4.8,0.,4.8,0.,4.8,0.,4.8
1979-07-01 15:09:26.450 ,3,0,0.,4.8,0.,4.8,0.,4.8,0.,4.8
1979-07-01 15:09:31.250 ,3,0,0.,4.8,0.,4.8,0.,4.8,0.,4.8
1979-07-01 15:09:36.050 ,2,0,0.,4.8,0.,4.8,0.,4.8,1.,4.8
1979-07-01 15:09:40.850 ,2,0,1.,4.8,0.,4.8,0.,4.8,0.,4.8
1979-07-01 15:09:45.650 ,2,0,0.,4.8,0.,4.8,0.,4.8,0.,4.8
1979-07-01 15:09:50.450 ,2,0,1.,4.8,0.,4.8,0.,4.8,0.,4.8
1979-07-01 15:09:55.250 ,2,0,1.,4.8,0.,4.8,0.,4.8,0.,4.8
1979-07-01 15:10:00.050 ,2,0,1.,4.8,0.,4.8,0.,4.8,0.,4.8
1979-07-01 15:10:04.850 ,2,0,0.,4.8,0.,4.8,0.,4.8,0.,4.8
1979-07-01 15:10:09.650 ,2,0,0.,4.8,0.,4.8,0.,4.8,0.,4.8
1979-07-01 15:10:14.450 ,2,0,0.,4.8,0.,4.8,0.,4.8,0.,4.8
1979-07-01 15:10:19.250 ,2,0,1.,4.8,0.,4.8,0.,4.8,0.,4.8
1979-07-01 15:10:24.050 ,1,0,0.,4.8,0.,4.8,0.,4.8,0.,4.8
1979-07-01 15:10:28.850 ,1,0,1.,4.8,0.,4.8,0.,4.8,0.,4.8
1979-07-01 15:10:33.650 ,1,0,1.,4.8,0.,4.8,0.,4.8,0.,4.8
1979-07-01 15:10:38.450 ,1,0,0.,4.8,0.,4.8,0.,4.8,0.,4.8
1979-07-01 15:10:43.250 ,1,0,1.,4.8,0.,4.8,0.,4.8,0.,4.8
1979-07-01 15:10:48.050 ,1,0,0.,4.8,0.,4.8,0.,4.8,0.,4.8
1979-07-01 15:10:52.850 ,1,0,0.,4.8,0.,4.8,0.,4.8,0.,4.8
1979-07-01 15:10:57.650 ,1,0,0.,4.8,0.,4.8,0.,4.8,0.,4.8
1979-07-01 15:11:02.450 ,1,0,0.,4.8,0.,4.8,0.,4.8,0.,4.8
1979-07-01 15:11:07.250 ,1,0,0.,4.8,0.,4.8,0.,4.8,0.,4.8
1979-07-01 15:11:12.050 ,0,0,0.,4.8,0.,4.8,0.,4.8,0.,4.8
1979-07-01 15:11:16.850 ,0,0,1.,4.8,0.,4.8,0.,4.8,1.,4.8
1979-07-01 15:11:21.650 ,0,0,0.,4.8,0.,4.8,0.,4.8,0.,4.8
1979-07-01 15:11:26.450 ,0,0,1.,4.8,0.,4.8,0.,4.8,0.,4.8
1979-07-01 15:11:31.250 ,0,0,0.,4.8,0.,4.8,0.,4.8,0.,4.8
1979-07-01 15:11:36.050 ,0,0,1.,4.8,0.,4.8,0.,4.8,0.,4.8
1979-07-01 15:11:40.850 ,0,0,0.,4.8,0.,4.8,0.,4.8,0.,4.8
1979-07-01 15:11:45.650 ,0,0,0.,4.8,0.,4.8,0.,4.8,0.,4.8
1979-07-01 15:11:50.450 ,0,0,0.,4.8,0.,4.8,0.,4.8,0.,4.8
1979-07-01 15:11:55.250 ,0,0,2.,4.8,0.,4.8,0.,4.8,0.,4.8
1979-07-01 15:12:00.050 ,0,0,0.,4.8,0.,4.8,0.,4.8,0.,4.8
1979-07-01 15:12:04.850 ,0,0,0.,4.8,0.,4.8,0.,4.8,0.,4.8
1979-07-01 15:12:09.650 ,0,0,0.,4.8,0.,4.8,0.,4.8,0.,4.8
1979-07-01 15:12:14.450 ,0,0,0.,4.8,0.,4.8,0.,4.8,0.,4.8
1979-07-01 15:12:19.250 ,0,0,0.,4.8,0.,4.8,0.,4.8,0.,4.8
1979-07-01 15:12:24.050 ,0,0,2.,4.8,1.,4.8,0.,4.8,0.,4.8
1979-07-01 15:12:28.850 ,0,0,1.,4.8,0.,4.8,0.,4.8,0.,4.8
1979-07-01 15:12:33.650 ,0,0,0.,4.8,0.,4.8,0.,4.8,0.,4.8
1979-07-01 15:12:38.450 ,0,0,0.,4.8,0.,4.8,1.,4.8,0.,4.8
1979-07-01 15:12:43.250 ,0,0,0.,4.8,0.,4.8,0.,4.8,0.,4.8
1979-07-01 15:12:48.050 ,1,0,0.,4.8,0.,4.8,0.,4.8,0.,4.8
1979-07-01 15:12:52.850 ,1,0,0.,4.8,0.,4.8,0.,4.8,0.,4.8
1979-07-01 15:12:57.650 ,1,0,0.,4.8,0.,4.8,0.,4.8,0.,4.8
1979-07-01 15:13:02.450 ,1,0,0.,4.8,0.,4.8,0.,4.8,0.,4.8
1979-07-01 15:13:07.250 ,1,0,0.,4.8,0.,4.8,0.,4.8,0.,4.8
1979-07-01 15:13:12.050 ,1,0,0.,4.8,0.,4.8,0.,4.8,0.,4.8
1979-07-01 15:13:16.850 ,1,0,1.,4.8,0.,4.8,0.,4.8,0.,4.8
1979-07-01 15:13:21.650 ,1,0,0.,4.8,0.,4.8,0.,4.8,0.,4.8
1979-07-01 15:13:26.450 ,1,0,0.,4.8,0.,4.8,0.,4.8,0.,4.8
1979-07-01 15:13:31.250 ,1,0,1.,4.8,0.,4.8,0.,4.8,0.,4.8
1979-07-01 15:13:36.050 ,2,0,0.,4.8,0.,4.8,0.,4.8,0.,4.8
1979-07-01 15:13:40.850 ,2,0,0.,4.8,0.,4.8,0.,4.8,0.,4.8
1979-07-01 15:13:45.650 ,2,0,0.,4.8,0.,4.8,0.,4.8,0.,4.8
1979-07-01 15:13:50.450 ,2,0,0.,4.8,0.,4.8,1.,4.8,0.,4.8
1979-07-01 15:13:55.250 ,2,0,0.,4.8,1.,4.8,0.,4.8,0.,4.8
1979-07-01 15:14:00.050 ,2,0,0.,4.8,0.,4.8,0.,4.8,0.,4.8
1979-07-01 15:14:04.850 ,2,0,0.,4.8,0.,4.8,1.,4.8,0.,4.8
1979-07-01 15:14:09.650 ,2,0,0.,4.8,0.,4.8,0.,4.8,0.,4.8
1979-07-01 15:14:14.450 ,2,0,1.,4.8,0.,4.8,0.,4.8,0.,4.8
1979-07-01 15:14:19.250 ,2,0,1.,4.8,0.,4.8,0.,4.8,0.,4.8
1979-07-01 15:14:24.050 ,3,0,0.,4.8,0.,4.8,0.,4.8,0.,4.8
1979-07-01 15:14:28.850 ,3,0,1.,4.8,0.,4.8,0.,4.8,0.,4.8
1979-07-01 15:14:33.650 ,3,0,0.,4.8,0.,4.8,0.,4.8,0.,4.8
1979-07-01 15:14:38.450 ,3,0,1.,4.8,0.,4.8,0.,4.8,0.,4.8
1979-07-01 15:14:43.250 ,3,0,0.,4.8,0.,4.8,0.,4.8,0.,4.8
1979-07-01 15:14:48.050 ,3,0,0.,4.8,0.,4.8,0.,4.8,0.,4.8
1979-07-01 15:14:52.850 ,3,0,0.,4.8,0.,4.8,0.,4.8,0.,4.8
1979-07-01 15:14:57.650 ,3,0,0.,4.8,1.,4.8,0.,4.8,0.,4.8
1979-07-01 15:15:02.450 ,3,0,1.,4.8,0.,4.8,0.,4.8,0.,4.8
1979-07-01 15:15:07.250 ,3,0,0.,4.8,0.,4.8,0.,4.8,0.,4.8
1979-07-01 15:15:12.050 ,4,0,0.,4.8,0.,4.8,0.,4.8,0.,4.8
1979-07-01 15:15:16.850 ,4,0,0.,4.8,0.,4.8,0.,4.8,0.,4.8
1979-07-01 15:15:21.650 ,4,0,0.,4.8,0.,4.8,0.,4.8,0.,4.8
1979-07-01 15:15:26.450 ,4,0,0.,4.8,0.,4.8,0.,4.8,0.,4.8
1979-07-01 15:15:31.250 ,4,0,0.,4.8,0.,4.8,0.,4.8,0.,4.8
1979-07-01 15:15:36.050 ,4,0,0.,4.8,0.,4.8,1.,4.8,0.,4.8
1979-07-01 15:15:40.850 ,4,0,0.,4.8,0.,4.8,1.,4.8,0.,4.8
1979-07-01 15:15:45.650 ,4,0,1.,4.8,0.,4.8,0.,4.8,0.,4.8
1979-07-01 15:15:50.450 ,4,0,1.,4.8,0.,4.8,0.,4.8,0.,4.8
1979-07-01 15:15:55.250 ,4,0,0.,4.8,1.,4.8,0.,4.8,0.,4.8
1979-07-01 15:16:00.050 ,5,0,0.,4.8,0.,4.8,0.,4.8,0.,4.8
1979-07-01 15:16:04.850 ,5,0,0.,4.8,0.,4.8,0.,4.8,0.,4.8
1979-07-01 15:16:09.650 ,5,0,0.,4.8,1.,4.8,0.,4.8,0.,4.8
1979-07-01 15:16:14.450 ,5,0,0.,4.8,0.,4.8,0.,4.8,0.,4.8
1979-07-01 15:16:19.250 ,5,0,1.,4.8,0.,4.8,1.,4.8,0.,4.8
1979-07-01 15:16:24.050 ,5,0,0.,4.8,0.,4.8,0.,4.8,1.,4.8
1979-07-01 15:16:28.850 ,5,0,0.,4.8,0.,4.8,0.,4.8,0.,4.8
1979-07-01 15:16:33.650 ,5,0,0.,4.8,0.,4.8,0.,4.8,0.,4.8
1979-07-01 15:16:38.450 ,5,0,1.,4.8,0.,4.8,0.,4.8,0.,4.8
1979-07-01 15:16:43.250 ,5,0,1.,4.8,0.,4.8,0.,4.8,0.,4.8
1979-07-01 15:16:48.050 ,6,0,0.,4.8,1.,4.8,0.,4.8,1.,4.8
1979-07-01 15:16:52.850 ,6,0,1.,4.8,0.,4.8,0.,4.8,0.,4.8
1979-07-01 15:16:57.650 ,6,0,0.,4.8,0.,4.8,0.,4.8,0.,4.8
1979-07-01 15:17:02.450 ,6,0,1.,4.8,0.,4.8,0.,4.8,0.,4.8
1979-07-01 15:17:07.250 ,6,0,0.,4.8,0.,4.8,0.,4.8,0.,4.8
1979-07-01 15:17:12.050 ,6,0,0.,4.8,0.,4.8,0.,4.8,0.,4.8
1979-07-01 15:17:16.850 ,6,0,0.,4.8,0.,4.8,0.,4.8,0.,4.8
1979-07-01 15:17:21.650 ,6,0,0.,4.8,0.,4.8,0.,4.8,0.,4.8
1979-07-01 15:17:26.450 ,6,0,0.,4.8,0.,4.8,0.,4.8,0.,4.8
1979-07-01 15:17:31.250 ,6,0,0.,4.8,0.,4.8,1.,4.8,0.,4.8
1979-07-01 15:17:36.050 ,7,0,0.,4.8,0.,4.8,0.,4.8,0.,4.8
1979-07-01 15:17:40.850 ,7,0,0.,4.8,0.,4.8,0.,4.8,0.,4.8
1979-07-01 15:17:45.650 ,7,0,0.,4.8,0.,4.8,0.,4.8,0.,4.8
1979-07-01 15:17:50.450 ,7,0,0.,4.8,0.,4.8,0.,4.8,0.,4.8
1979-07-01 15:17:55.250 ,7,0,1.,4.8,0.,4.8,0.,4.8,0.,4.8
1979-07-01 15:18:00.050 ,7,0,0.,4.8,0.,4.8,1.,4.8,0.,4.8
1979-07-01 15:18:04.850 ,7,0,0.,4.8,0.,4.8,0.,4.8,0.,4.8
1979-07-01 15:18:09.650 ,7,0,0.,4.8,0.,4.8,0.,4.8,0.,4.8
1979-07-01 15:18:14.450 ,7,0,0.,4.8,0.,4.8,1.,4.8,0.,4.8
1979-07-01 15:18:19.250 ,7,0,2.,4.8,0.,4.8,0.,4.8,0.,4.8
1979-07-01 15:18:24.050 ,7,0,0.,4.8,0.,4.8,0.,4.8,0.,4.8
1979-07-01 15:18:28.850 ,7,0,0.,4.8,0.,4.8,0.,4.8,0.,4.8
1979-07-01 15:18:33.650 ,7,0,1.,4.8,0.,4.8,0.,4.8,0.,4.8
1979-07-01 15:18:38.450 ,7,0,0.,4.8,0.,4.8,0.,4.8,0.,4.8
1979-07-01 15:18:43.250 ,7,0,1.,4.8,0.,4.8,0.,4.8,0.,4.8
1979-07-01 15:18:48.050 ,7,0,0.,4.8,0.,4.8,1.,4.8,0.,4.8
1979-07-01 15:18:52.850 ,7,0,1.,4.8,0.,4.8,0.,4.8,0.,4.8
1979-07-01 15:18:57.650 ,7,0,0.,4.8,0.,4.8,0.,4.8,0.,4.8
1979-07-01 15:19:02.450 ,7,0,0.,4.8,0.,4.8,0.,4.8,0.,4.8
1979-07-01 15:19:07.250 ,7,0,0.,4.8,0.,4.8,0.,4.8,0.,4.8
1979-07-01 15:19:12.050 ,6,0,1.,4.8,0.,4.8,0.,4.8,0.,4.8
1979-07-01 15:19:16.850 ,6,0,0.,4.8,0.,4.8,0.,4.8,0.,4.8
1979-07-01 15:19:21.650 ,6,0,0.,4.8,0.,4.8,2.,4.8,0.,4.8
1979-07-01 15:19:26.450 ,6,0,0.,4.8,0.,4.8,0.,4.8,0.,4.8
1979-07-01 15:19:31.250 ,6,0,1.,4.8,0.,4.8,0.,4.8,0.,4.8
1979-07-01 15:19:36.050 ,6,0,0.,4.8,0.,4.8,0.,4.8,0.,4.8
1979-07-01 15:19:40.850 ,6,0,0.,4.8,0.,4.8,0.,4.8,0.,4.8
1979-07-01 15:19:45.650 ,6,0,0.,4.8,0.,4.8,0.,4.8,0.,4.8
1979-07-01 15:19:50.450 ,6,0,1.,4.8,0.,4.8,0.,4.8,0.,4.8
1979-07-01 15:19:55.250 ,6,0,0.,4.8,0.,4.8,0.,4.8,0.,4.8
1979-07-01 15:20:00.050 ,5,0,0.,4.8,0.,4.8,0.,4.8,1.,4.8
1979-07-01 15:20:04.850 ,5,0,0.,4.8,0.,4.8,0.,4.8,0.,4.8
1979-07-01 15:20:09.650 ,5,0,1.,4.8,0.,4.8,0.,4.8,0.,4.8
1979-07-01 15:20:14.450 ,5,0,0.,4.8,0.,4.8,0.,4.8,0.,4.8
1979-07-01 15:20:19.250 ,5,0,1.,4.8,0.,4.8,1.,4.8,0.,4.8
1979-07-01 15:20:24.050 ,5,0,0.,4.8,0.,4.8,0.,4.8,0.,4.8
1979-07-01 15:20:28.850 ,5,0,0.,4.8,0.,4.8,0.,4.8,0.,4.8
1979-07-01 15:20:33.650 ,5,0,0.,4.8,0.,4.8,0.,4.8,0.,4.8
1979-07-01 15:20:38.450 ,5,0,0.,4.8,0.,4.8,2.,4.8,0.,4.8
1979-07-01 15:20:43.250 ,5,0,0.,4.8,1.,4.8,0.,4.8,0.,4.8
1979-07-01 15:20:48.050 ,4,0,0.,4.8,0.,4.8,0.,4.8,0.,4.8
1979-07-01 15:20:52.850 ,4,0,0.,4.8,0.,4.8,0.,4.8,0.,4.8
1979-07-01 15:20:57.650 ,4,0,0.,4.8,0.,4.8,0.,4.8,0.,4.8
1979-07-01 15:21:02.450 ,4,0,1.,4.8,0.,4.8,0.,4.8,0.,4.8
1979-07-01 15:21:07.250 ,4,0,0.,4.8,0.,4.8,0.,4.8,0.,4.8
1979-07-01 15:21:12.050 ,4,0,0.,4.8,0.,4.8,0.,4.8,0.,4.8
1979-07-01 15:21:16.850 ,4,0,1.,4.8,0.,4.8,1.,4.8,0.,4.8
1979-07-01 15:21:21.650 ,4,0,0.,4.8,0.,4.8,0.,4.8,0.,4.8
1979-07-01 15:21:26.450 ,4,0,0.,4.8,0.,4.8,0.,4.8,0.,4.8
1979-07-01 15:21:31.250 ,4,0,1.,4.8,0.,4.8,1.,4.8,0.,4.8
1979-07-01 15:21:36.050 ,3,0,0.,4.8,0.,4.8,0.,4.8,0.,4.8
1979-07-01 15:21:40.850 ,3,0,0.,4.8,0.,4.8,0.,4.8,0.,4.8
1979-07-01 15:21:45.650 ,3,0,0.,4.8,0.,4.8,0.,4.8,0.,4.8
1979-07-01 15:21:50.450 ,3,0,0.,4.8,0.,4.8,0.,4.8,0.,4.8
1979-07-01 15:21:55.250 ,3,0,1.,4.8,0.,4.8,0.,4.8,0.,4.8
1979-07-01 15:22:00.050 ,3,0,1.,4.8,0.,4.8,0.,4.8,0.,4.8
1979-07-01 15:22:04.850 ,3,0,0.,4.8,0.,4.8,0.,4.8,0.,4.8
1979-07-01 15:22:09.650 ,3,0,0.,4.8,0.,4.8,0.,4.8,0.,4.8
1979-07-01 15:22:14.450 ,3,0,0.,4.8,0.,4.8,0.,4.8,0.,4.8
1979-07-01 15:22:19.250 ,3,0,0.,4.8,0.,4.8,0.,4.8,0.,4.8
1979-07-01 15:22:24.050 ,2,0,1.,4.8,0.,4.8,0.,4.8,0.,4.8
1979-07-01 15:22:28.850 ,2,0,1.,4.8,0.,4.8,0.,4.8,0.,4.8
1979-07-01 15:22:33.650 ,2,0,1.,4.8,0.,4.8,0.,4.8,0.,4.8
1979-07-01 15:22:38.450 ,2,0,1.,4.8,0.,4.8,0.,4.8,0.,4.8
1979-07-01 15:22:43.250 ,2,0,0.,4.8,0.,4.8,0.,4.8,0.,4.8
1979-07-01 15:22:48.050 ,2,0,1.,4.8,0.,4.8,0.,4.8,0.,4.8
1979-07-01 15:22:52.850 ,2,0,0.,4.8,0.,4.8,0.,4.8,0.,4.8
1979-07-01 15:22:57.650 ,2,0,0.,4.8,0.,4.8,0.,4.8,0.,4.8
1979-07-01 15:23:02.450 ,2,0,0.,4.8,0.,4.8,0.,4.8,0.,4.8
1979-07-01 15:23:07.250 ,2,0,0.,4.8,0.,4.8,0.,4.8,0.,4.8
1979-07-01 15:23:12.050 ,1,0,0.,4.8,0.,4.8,0.,4.8,0.,4.8
1979-07-01 15:23:16.850 ,1,0,2.,4.8,0.,4.8,0.,4.8,0.,4.8
1979-07-01 15:23:21.650 ,1,0,0.,4.8,0.,4.8,0.,4.8,0.,4.8
1979-07-01 15:23:26.450 ,1,0,3.,4.8,0.,4.8,0.,4.8,0.,4.8
1979-07-01 15:23:31.250 ,1,0,0.,4.8,0.,4.8,0.,4.8,0.,4.8
1979-07-01 15:23:36.050 ,1,0,0.,4.8,0.,4.8,0.,4.8,0.,4.8
1979-07-01 15:23:40.850 ,1,0,0.,4.8,0.,4.8,0.,4.8,0.,4.8
1979-07-01 15:23:45.650 ,1,0,1.,4.8,0.,4.8,0.,4.8,0.,4.8
1979-07-01 15:23:50.450 ,1,0,1.,4.8,0.,4.8,0.,4.8,0.,4.8
1979-07-01 15:23:55.250 ,1,0,1.,4.8,0.,4.8,0.,4.8,0.,4.8
1979-07-01 15:24:00.050 ,0,0,0.,4.8,0.,4.8,0.,4.8,0.,4.8
1979-07-01 15:24:04.850 ,0,0,0.,4.8,0.,4.8,0.,4.8,0.,4.8
1979-07-01 15:24:09.650 ,0,0,0.,4.8,0.,4.8,0.,4.8,0.,4.8
1979-07-01 15:24:14.450 ,0,0,0.,4.8,0.,4.8,1.,4.8,0.,4.8
1979-07-01 15:24:19.250 ,0,0,0.,4.8,0.,4.8,0.,4.8,0.,4.8
1979-07-01 15:24:24.050 ,0,0,0.,4.8,0.,4.8,1.,4.8,0.,4.8
1979-07-01 15:24:28.850 ,0,0,0.,4.8,0.,4.8,0.,4.8,0.,4.8
1979-07-01 15:24:33.650 ,0,0,1.,4.8,0.,4.8,0.,4.8,0.,4.8
1979-07-01 15:24:38.450 ,0,0,1.,4.8,0.,4.8,0.,4.8,0.,4.8
1979-07-01 15:24:43.250 ,0,0,1.,4.8,0.,4.8,0.,4.8,0.,4.8
1979-07-01 15:24:49.250 ,0,0,,0,,0,,0,,0
1979-07-01 15:24:54.050 ,0,0,1.,4.8,0.,4.8,0.,4.8,0.,4.8
1979-07-01 15:24:58.850 ,0,0,1.,4.8,0.,4.8,0.,4.8,0.,4.8
1979-07-01 15:25:03.650 ,0,0,0.,4.8,0.,4.8,0.,4.8,0.,4.8
1979-07-01 15:25:08.450 ,0,0,2.,4.8,0.,4.8,0.,4.8,0.,4.8
1979-07-01 15:25:12.050 ,0,0,1.,4.8,0.,4.8,0.,4.8,0.,4.8
1979-07-01 15:25:16.850 ,0,0,0.,4.8,0.,4.8,0.,4.8,0.,4.8
1979-07-01 15:25:21.650 ,0,0,0.,4.8,0.,4.8,0.,4.8,0.,4.8
1979-07-01 15:25:26.450 ,0,0,0.,4.8,0.,4.8,0.,4.8,0.,4.8
1979-07-01 15:25:31.250 ,0,0,0.,4.8,0.,4.8,0.,4.8,0.,4.8
1979-07-01 15:25:36.050 ,1,0,2.,4.8,0.,4.8,0.,4.8,0.,4.8
1979-07-01 15:25:40.850 ,1,0,0.,4.8,0.,4.8,0.,4.8,0.,4.8
1979-07-01 15:25:45.650 ,1,0,0.,4.8,0.,4.8,0.,4.8,0.,4.8
1979-07-01 15:25:50.450 ,1,0,0.,4.8,0.,4.8,0.,4.8,0.,4.8
1979-07-01 15:25:55.250 ,1,0,0.,4.8,0.,4.8,0.,4.8,0.,4.8
1979-07-01 15:26:00.050 ,1,0,1.,4.8,0.,4.8,0.,4.8,0.,4.8
1979-07-01 15:26:04.850 ,1,0,1.,4.8,0.,4.8,1.,4.8,0.,4.8
1979-07-01 15:26:09.650 ,1,0,1.,4.8,0.,4.8,0.,4.8,0.,4.8
1979-07-01 15:26:14.450 ,1,0,0.,4.8,0.,4.8,0.,4.8,0.,4.8
1979-07-01 15:26:19.250 ,1,0,0.,4.8,0.,4.8,0.,4.8,0.,4.8
1979-07-01 15:26:24.050 ,2,0,0.,4.8,0.,4.8,0.,4.8,0.,4.8
1979-07-01 15:26:28.850 ,2,0,1.,4.8,0.,4.8,0.,4.8,0.,4.8
1979-07-01 15:26:33.650 ,2,0,0.,4.8,0.,4.8,0.,4.8,0.,4.8
1979-07-01 15:26:38.450 ,2,0,0.,4.8,0.,4.8,0.,4.8,0.,4.8
1979-07-01 15:26:43.250 ,2,0,0.,4.8,0.,4.8,0.,4.8,0.,4.8
1979-07-01 15:26:48.050 ,2,0,0.,4.8,0.,4.8,0.,4.8,0.,4.8
1979-07-01 15:26:52.850 ,2,0,0.,4.8,0.,4.8,0.,4.8,0.,4.8
1979-07-01 15:26:57.650 ,2,0,1.,4.8,0.,4.8,0.,4.8,0.,4.8
1979-07-01 15:27:02.450 ,2,0,2.,4.8,0.,4.8,0.,4.8,0.,4.8
1979-07-01 15:27:07.250 ,2,0,0.,4.8,0.,4.8,0.,4.8,0.,4.8
1979-07-01 15:27:12.050 ,3,0,1.,4.8,0.,4.8,0.,4.8,0.,4.8
1979-07-01 15:27:16.850 ,3,0,0.,4.8,0.,4.8,0.,4.8,0.,4.8
1979-07-01 15:27:21.650 ,3,0,0.,4.8,0.,4.8,0.,4.8,0.,4.8
1979-07-01 15:27:26.450 ,3,0,1.,4.8,0.,4.8,0.,4.8,0.,4.8
1979-07-01 15:27:31.250 ,3,0,0.,4.8,0.,4.8,0.,4.8,0.,4.8
1979-07-01 15:27:36.050 ,3,0,0.,4.8,0.,4.8,1.,4.8,0.,4.8
1979-07-01 15:27:40.850 ,3,0,0.,4.8,0.,4.8,0.,4.8,0.,4.8
1979-07-01 15:27:45.650 ,3,0,0.,4.8,0.,4.8,1.,4.8,0.,4.8
1979-07-01 15:27:50.450 ,3,0,0.,4.8,0.,4.8,0.,4.8,0.,4.8
1979-07-01 15:27:55.250 ,3,0,0.,4.8,0.,4.8,0.,4.8,0.,4.8
1979-07-01 15:28:00.050 ,4,0,1.,4.8,0.,4.8,0.,4.8,0.,4.8
1979-07-01 15:28:04.850 ,4,0,1.,4.8,0.,4.8,0.,4.8,0.,4.8
1979-07-01 15:28:09.650 ,4,0,0.,4.8,0.,4.8,0.,4.8,0.,4.8
1979-07-01 15:28:14.450 ,4,0,0.,4.8,0.,4.8,0.,4.8,0.,4.8
1979-07-01 15:28:19.250 ,4,0,0.,4.8,0.,4.8,0.,4.8,0.,4.8
1979-07-01 15:28:24.050 ,4,0,0.,4.8,0.,4.8,0.,4.8,0.,4.8
1979-07-01 15:28:28.850 ,4,0,0.,4.8,0.,4.8,0.,4.8,0.,4.8
1979-07-01 15:28:33.650 ,4,0,0.,4.8,0.,4.8,0.,4.8,0.,4.8
1979-07-01 15:28:38.450 ,4,0,2.,4.8,0.,4.8,0.,4.8,0.,4.8
1979-07-01 15:28:43.250 ,4,0,1.,4.8,0.,4.8,0.,4.8,0.,4.8
1979-07-01 15:28:48.050 ,5,0,0.,4.8,0.,4.8,0.,4.8,0.,4.8
1979-07-01 15:28:52.850 ,5,0,1.,4.8,0.,4.8,0.,4.8,0.,4.8
1979-07-01 15:28:57.650 ,5,0,0.,4.8,0.,4.8,0.,4.8,0.,4.8
1979-07-01 15:29:02.450 ,5,0,0.,4.8,0.,4.8,0.,4.8,0.,4.8
1979-07-01 15:29:07.250 ,5,0,0.,4.8,0.,4.8,0.,4.8,0.,4.8
1979-07-01 15:29:12.050 ,5,0,1.,4.8,0.,4.8,1.,4.8,0.,4.8
1979-07-01 15:29:16.850 ,5,0,0.,4.8,0.,4.8,0.,4.8,0.,4.8
1979-07-01 15:29:21.650 ,5,0,3.,4.8,0.,4.8,0.,4.8,0.,4.8
1979-07-01 15:29:26.450 ,5,0,1.,4.8,0.,4.8,0.,4.8,0.,4.8
1979-07-01 15:29:31.250 ,5,0,1.,4.8,0.,4.8,0.,4.8,0.,4.8
1979-07-01 15:29:36.050 ,6,0,1.,4.8,0.,4.8,0.,4.8,0.,4.8
1979-07-01 15:29:40.850 ,6,0,1.,4.8,0.,4.8,0.,4.8,0.,4.8
1979-07-01 15:29:45.650 ,6,0,0.,4.8,0.,4.8,0.,4.8,0.,4.8
1979-07-01 15:29:50.450 ,6,0,0.,4.8,0.,4.8,0.,4.8,0.,4.8
1979-07-01 15:29:55.250 ,6,0,0.,4.8,0.,4.8,0.,4.8,0.,4.8
1979-07-01 15:30:00.050 ,6,0,0.,4.8,0.,4.8,0.,4.8,0.,4.8
1979-07-01 15:30:04.850 ,6,0,0.,4.8,0.,4.8,0.,4.8,0.,4.8
1979-07-01 15:30:09.650 ,6,0,0.,4.8,0.,4.8,0.,4.8,0.,4.8
1979-07-01 15:30:14.450 ,6,0,0.,4.8,0.,4.8,0.,4.8,0.,4.8
1979-07-01 15:30:19.250 ,6,0,0.,4.8,0.,4.8,0.,4.8,0.,4.8
1979-07-01 15:30:24.050 ,7,0,1.,4.8,0.,4.8,0.,4.8,0.,4.8
1979-07-01 15:30:28.850 ,7,0,0.,4.8,0.,4.8,0.,4.8,0.,4.8
1979-07-01 15:30:33.650 ,7,0,1.,4.8,0.,4.8,0.,4.8,0.,4.8
1979-07-01 15:30:38.450 ,7,0,0.,4.8,0.,4.8,0.,4.8,0.,4.8
1979-07-01 15:30:43.250 ,7,0,0.,4.8,0.,4.8,0.,4.8,0.,4.8
1979-07-01 15:30:48.050 ,7,0,0.,4.8,0.,4.8,0.,4.8,0.,4.8
1979-07-01 15:30:52.850 ,7,0,0.,4.8,0.,4.8,1.,4.8,0.,4.8
1979-07-01 15:30:57.650 ,7,0,0.,4.8,0.,4.8,0.,4.8,0.,4.8
1979-07-01 15:31:02.450 ,7,0,1.,4.8,0.,4.8,0.,4.8,0.,4.8
1979-07-01 15:31:07.250 ,7,0,1.,4.8,0.,4.8,0.,4.8,0.,4.8
1979-07-01 15:31:12.050 ,3,1,0.,4.8,0.,4.8,0.,4.8,0.,4.8
1979-07-01 15:31:16.850 ,3,1,0.,4.8,0.,4.8,0.,4.8,0.,4.8
1979-07-01 15:31:21.650 ,3,1,2.,4.8,1.,4.8,0.,4.8,0.,4.8
1979-07-01 15:31:26.450 ,3,1,0.,4.8,0.,4.8,0.,4.8,0.,4.8
1979-07-01 15:31:31.250 ,3,1,1.,4.8,0.,4.8,0.,4.8,0.,4.8
1979-07-01 15:31:36.050 ,0,1,0.,4.8,0.,4.8,0.,4.8,0.,4.8
1979-07-01 15:31:40.850 ,0,1,1.,4.8,0.,4.8,0.,4.8,0.,4.8
1979-07-01 15:31:45.650 ,0,1,0.,4.8,0.,4.8,0.,4.8,0.,4.8
1979-07-01 15:31:50.450 ,0,1,0.,4.8,0.,4.8,0.,4.8,0.,4.8
1979-07-01 15:31:55.250 ,0,1,1.,4.8,0.,4.8,1.,4.8,0.,4.8
1979-07-01 15:32:00.050 ,4,1,0.,4.8,0.,4.8,0.,4.8,0.,4.8
1979-07-01 15:32:04.850 ,4,1,0.,4.8,0.,4.8,0.,4.8,0.,4.8
1979-07-01 15:32:09.650 ,4,1,1.,4.8,0.,4.8,0.,4.8,0.,4.8
1979-07-01 15:32:14.450 ,4,1,0.,4.8,0.,4.8,0.,4.8,0.,4.8
1979-07-01 15:32:19.250 ,4,1,0.,4.8,0.,4.8,0.,4.8,0.,4.8
1979-07-01 15:32:24.050 ,7,1,1.,4.8,0.,4.8,0.,4.8,0.,4.8
1979-07-01 15:32:28.850 ,7,1,1.,4.8,0.,4.8,0.,4.8,0.,4.8
1979-07-01 15:32:33.650 ,7,1,0.,4.8,0.,4.8,0.,4.8,0.,4.8
1979-07-01 15:32:38.450 ,7,1,0.,4.8,0.,4.8,0.,4.8,0.,4.8
1979-07-01 15:32:43.250 ,7,1,0.,4.8,0.,4.8,0.,4.8,0.,4.8
1979-07-01 15:32:48.050 ,3,1,1.,4.8,0.,4.8,0.,4.8,0.,4.8
1979-07-01 15:32:52.850 ,3,1,0.,4.8,0.,4.8,0.,4.8,0.,4.8
1979-07-01 15:32:57.650 ,3,1,0.,4.8,0.,4.8,1.,4.8,0.,4.8
1979-07-01 15:33:02.450 ,3,1,0.,4.8,0.,4.8,0.,4.8,0.,4.8
1979-07-01 15:33:07.250 ,3,1,0.,4.8,0.,4.8,0.,4.8,0.,4.8
1979-07-01 15:33:12.050 ,0,1,2.,4.8,0.,4.8,0.,4.8,0.,4.8
1979-07-01 15:33:16.850 ,0,1,1.,4.8,0.,4.8,0.,4.8,0.,4.8